Weather History for EGVN - December, 2013

Change the Weather History Date:

Wednesday, December 4, 2013

  Actual Average Record
Temperature  
Mean Temperature 40 °F -  
Max Temperature 46 °F 44 °F 55 °F (2000)
Min Temperature 32 °F 34 °F 30 °F (1996)
Degree Days  
Heating Degree Days 26    
Moisture  
Dew Point 37 °F    
Average Humidity 84    
Maximum Humidity 93    
Minimum Humidity 61    
Precipitation  
Precipitation 0.02 in - - ()
Sea Level Pressure  
Sea Level Pressure 30.40 in    
Wind  
Wind Speed 5 mph ()    
Max Wind Speed 13 mph    
Max Gust Speed -    
Visibility 7.4 miles    
Events Rain    
Averages and records for this station are not official NWS values.
T = Trace of Precipitation, MM = Missing Value Source: Averaged Metar Reports

Daily Weather History Graph

Daily Weather History Graph

Search for Another Location

Airport or City:

Trip Planner

Search our weather history database for the weather conditions in past years. The results will help you decide how hot, cold, wet, or windy it might be!

Date:

Astronomy

Dec. 04, 2013 Rise Set
Actual Time 7:55 AM GMT 3:57 PM GMT
Civil Twilight 7:15 AM GMT 4:37 PM GMT
Nautical Twilight 6:32 AM GMT 5:20 PM GMT
Astronomical Twilight 5:51 AM GMT 6:00 PM GMT
Moon 9:05 AM GMT (12/4) 5:56 PM GMT (12/4)
Length of Visible Light 9h 22m
Length of Day
8h 02m
Waxing Crescent, 3% of the Moon is Illuminated
Dec 4
Waxing Crescent
Dec 9
First Quarter
Dec 17
Full
Dec 25
Last Quarter
Jan 1
New

Hourly Weather History & Observations

Time (GMT) Temp. Windchill Dew Point Humidity Pressure Visibility Wind Dir Wind Speed Gust Speed Precip Events Conditions
12:00 AM 41 °F - 37 °F 81% 30.34 in 7 mi West 3.5 mph - -   Mostly Cloudy
12:50 AM 41.0 °F 38.0 °F 37.4 °F 87% 30.30 in 6.2 mi WSW 4.6 mph - N/A   Mostly Cloudy
1:50 AM 42.8 °F 39.3 °F 37.4 °F 81% 30.30 in 6.2 mi WSW 5.8 mph - N/A   Mostly Cloudy
2:50 AM 42.8 °F 39.3 °F 39.2 °F 87% 30.30 in 6.2 mi West 5.8 mph - N/A   Mostly Cloudy
3:00 AM 42 °F - 39 °F 83% 30.32 in 6 mi West 5.8 mph - -   Mostly Cloudy
3:50 AM 42.8 °F 40.1 °F 39.2 °F 87% 30.27 in 6.2 mi SW 4.6 mph - N/A   Mostly Cloudy
4:50 AM 42.8 °F 40.1 °F 39.2 °F 87% 30.30 in - WSW 4.6 mph - N/A   Clear
5:50 AM 42.8 °F 40.1 °F 39.2 °F 87% 30.30 in 6.2 mi WSW 4.6 mph - N/A   Mostly Cloudy
6:00 AM 43 °F - 40 °F 84% 30.31 in 9 mi WSW 4.6 mph - -   Mostly Cloudy
6:50 AM 44.6 °F 41.4 °F 41.0 °F 87% 30.30 in 6.2 mi WSW 5.8 mph - N/A   Light Drizzle
7:50 AM 44.6 °F 40.7 °F 41.0 °F 87% 30.30 in 5.0 mi WSW 6.9 mph - N/A Rain Light Rain
8:19 AM 44.6 °F 39.7 °F 42.8 °F 93% 30.33 in 3.1 mi NW 9.2 mph - N/A Rain Light Rain
8:50 AM 44.6 °F 39.2 °F 41.0 °F 87% 30.36 in 6.2 mi NNW 10.4 mph - N/A   Mostly Cloudy
9:00 AM 44 °F - 41 °F 87% 30.37 in 12 mi NNW 10.4 mph - - Rain Light Rain
9:50 AM 44.6 °F 41.4 °F 39.2 °F 81% 30.39 in 6.2 mi NNW 5.8 mph - N/A   Mostly Cloudy
10:50 AM 44.6 °F 39.7 °F 39.2 °F 81% 30.39 in 6.2 mi NW 9.2 mph - N/A   Mostly Cloudy
11:50 AM 46.4 °F 41.9 °F 37.4 °F 71% 30.39 in 6.2 mi NNW 9.2 mph - N/A   Mostly Cloudy
12:00 PM 46 °F - 37 °F 61% 30.43 in 22 mi NNW 9.2 mph - -   Partly Cloudy
12:50 PM 46.4 °F 41.1 °F 37.4 °F 71% 30.42 in 6.2 mi NNW 11.5 mph - N/A   Mostly Cloudy
1:50 PM 44.6 °F 38.4 °F 37.4 °F 76% 30.42 in 6.2 mi NNW 12.7 mph - N/A   Mostly Cloudy
2:50 PM 44.6 °F 40.2 °F 37.4 °F 76% 30.45 in 6.2 mi NW 8.1 mph - N/A   Scattered Clouds
3:00 PM 44 °F - 37 °F 68% 30.46 in 22 mi NW 8.1 mph - -   Scattered Clouds
3:50 PM 42.8 °F 40.1 °F 37.4 °F 81% 30.45 in 6.2 mi West 4.6 mph - N/A   Partly Cloudy
4:50 PM 39.2 °F 37.0 °F 35.6 °F 87% 30.45 in - West 3.5 mph - N/A   Clear
5:50 PM 37.4 °F 34.9 °F 35.6 °F 93% 30.48 in - West 3.5 mph - N/A   Clear
6:00 PM 38 °F - 35 °F 83% 30.51 in 19 mi West 3.5 mph - -   Scattered Clouds
6:50 PM 35.6 °F 32.8 °F 33.8 °F 93% 30.48 in - West 3.5 mph - N/A   Clear
7:50 PM 33.8 °F 30.8 °F 32.0 °F 93% 30.48 in - WSW 3.5 mph - N/A   Clear
8:50 PM 33.8 °F 30.8 °F 32.0 °F 93% 30.51 in - West 3.5 mph - N/A   Clear
9:00 PM 33 °F - 31 °F 92% 30.53 in 16 mi West 3.5 mph - -   Scattered Clouds
9:50 PM 35.6 °F 31.7 °F 32.0 °F 87% 30.48 in - West 4.6 mph - N/A   Clear
10:50 PM 33.8 °F - 30.2 °F 87% 30.48 in - WSW 2.3 mph - N/A   Clear
11:50 PM 32.0 °F 27.5 °F 30.2 °F 93% 30.48 in - WSW 4.6 mph - N/A   Clear